TimeCDT,TemperatureF,Dew PointF,Humidity,Sea Level PressureIn,VisibilityMPH,Wind Direction,Wind SpeedMPH,Gust SpeedMPH,PrecipitationIn,Events,Conditions,WindDirDegrees,DateUTC
12:53 AM,62.1,55.0,78,30.12,10.0,South,6.9,-,N/A,,Clear,170,2013-08-18 05:53:00
1:53 AM,61.0,54.0,78,30.12,10.0,South,4.6,-,N/A,,Clear,180,2013-08-18 06:53:00
2:53 AM,60.1,54.0,80,30.12,10.0,South,4.6,-,N/A,,Clear,190,2013-08-18 07:53:00
3:53 AM,57.9,54.0,87,30.13,10.0,Calm,Calm,-,N/A,,Clear,0,2013-08-18 08:53:00
4:53 AM,54.0,52.0,93,30.12,10.0,SE,5.8,-,N/A,,Clear,140,2013-08-18 09:53:00
5:53 AM,54.0,52.0,93,30.12,10.0,SE,3.5,-,N/A,,Clear,140,2013-08-18 10:53:00
6:53 AM,53.1,51.1,93,30.13,6.0,SE,4.6,-,N/A,,Clear,140,2013-08-18 11:53:00
7:06 AM,55.4,53.6,94,30.11,7.0,SE,4.6,-,N/A,,Partly Cloudy,140,2013-08-18 12:06:00
7:53 AM,59.0,55.0,87,30.13,10.0,SE,5.8,-,N/A,,Clear,140,2013-08-18 12:53:00
8:53 AM,66.0,55.9,70,30.14,10.0,South,6.9,-,N/A,,Clear,170,2013-08-18 13:53:00
9:53 AM,71.1,55.0,57,30.13,10.0,South,10.4,-,N/A,,Clear,180,2013-08-18 14:53:00
10:53 AM,73.9,55.0,52,30.11,10.0,South,12.7,-,N/A,,Clear,180,2013-08-18 15:53:00
11:53 AM,77.0,55.0,47,30.09,10.0,South,16.1,23.0,N/A,,Clear,180,2013-08-18 16:53:00
12:53 PM,80.1,54.0,40,30.06,10.0,SSW,20.7,29.9,N/A,,Clear,200,2013-08-18 17:53:00
1:53 PM,80.1,54.0,40,30.06,10.0,South,18.4,27.6,N/A,,Clear,190,2013-08-18 18:53:00
2:53 PM,81.0,55.0,41,30.08,10.0,SSW,15.0,-,N/A,,Partly Cloudy,210,2013-08-18 19:53:00
3:53 PM,81.0,55.0,41,30.06,10.0,SSW,16.1,-,N/A,,Clear,210,2013-08-18 20:53:00
4:53 PM,81.0,55.0,41,30.04,10.0,SSW,17.3,-,N/A,,Clear,200,2013-08-18 21:53:00
5:53 PM,79.0,55.9,45,30.03,10.0,SSW,15.0,21.9,N/A,,Clear,200,2013-08-18 22:53:00
6:53 PM,77.0,55.0,47,30.02,10.0,South,12.7,21.9,N/A,,Clear,190,2013-08-18 23:53:00
7:53 PM,73.9,55.0,52,30.00,10.0,South,9.2,-,N/A,,Clear,180,2013-08-19 00:53:00
8:53 PM,71.1,57.0,61,29.99,10.0,South,6.9,-,N/A,,Partly Cloudy,170,2013-08-19 01:53:00
9:53 PM,70.0,57.9,65,30.00,10.0,South,8.1,-,N/A,,Mostly Cloudy,170,2013-08-19 02:53:00
10:53 PM,70.0,57.9,65,30.02,10.0,South,6.9,-,N/A,,Overcast,170,2013-08-19 03:53:00
11:53 PM,69.1,59.0,70,30.01,10.0,South,5.8,-,N/A,,Overcast,190,2013-08-19 04:53:00